[[{"header":{"parameterUnit":"m.s-1","parameterCategory":1,"la1":30.2991,"la2":30.254,"lo1":-89.0895,"lo2":-89.0444,"dy":0.0017,"dx":0.0017,"nx":28,"ny":28,"refTime":"2024-03-25T21:00:00:Z","depth":0,"parameterNumber":2,"parameterNumberName":"U-component_of_WINDS"},"data":[0,0,0,0,0,0,0,0,0,0,0,0,0,0,0,0,0,0,0,0,0,0,0,0,0,0,0,0,0,0,0,0,0,0,0,0,0,0,0,0,0,0,0,0,0,0,0,0,0,0,0,0,0,0,0,0,0,0,0.1073,0.1073,0,0.1087,0.1087,0.1087,0.1082,0.1081,0.1081,0.1081,0.1093,0.1094,0.1094,0,0,0,0,0,0,0,0,0,0,0,0,0,0.104,0.104,0.1073,0.1073,0.1073,0.1087,0.1087,0.1087,0.1082,0.1081,0.1081,0.1081,0.1093,0.1094,0.1094,0,0,0,0,0,0,0,0,0,0,0,0,0,0.1054,0.1041,0.1073,0.1072,0.1072,0.1087,0.1087,0.1087,0.1082,0.1081,0.1081,0.1081,0.1093,0.1093,0.1094,0.111,0,0,0.1097,0.1098,0,0,0,0,0,0,0,0,0.1053,0.1055,0.1072,0.1072,0.1073,0.1082,0.108,0.1095,0.1082,0.1078,0.1081,0.108,0.109,0.1091,0.1094,0.111,0.1111,0.1097,0.1098,0.1098,0.1099,0,0,0,0,0,0,0,0.1052,0.1054,0.1079,0.1073,0.1073,0.1071,0.1072,0.1083,0.1086,0.1079,0.1078,0.108,0.109,0.1094,0.1095,0.1111,0.1097,0.1098,0.1099,0.1099,0.114,0.114,0,0,0,0,0,0,0.1051,0.1054,0.1078,0.1079,0.1062,0.1072,0.1073,0.108,0.1086,0.1087,0.108,0.108,0.1092,0.1094,0.1095,0.1113,0.1098,0.1099,0.11,0.1139,0.114,0.114,0,0,0,0,0,0,0.1051,0.1054,0.1078,0.1066,0.1069,0.1073,0.108,0.108,0.1084,0.1088,0.1088,0.1084,0.1092,0.1094,0.1106,0.1113,0.11,0.11,0.1138,0.1139,0.114,0.1149,0,0,0,0,0,0,0.105,0.1053,0.106,0.1066,0.107,0.1089,0.108,0.1081,0.1086,0.1085,0.1091,0.1092,0.1092,0.1105,0.1107,0.1114,0.1101,0.1138,0.1139,0.114,0.1148,0.115,0.1152,0,0,0,0,0,0.1049,0.1061,0.106,0.1063,0.1078,0.109,0.1091,0.1092,0.1087,0.1092,0.1095,0.1091,0.1112,0.1106,0.1109,0.1116,0.1137,0.1139,0.114,0.1148,0.115,0.1152,0,0,0,0,0,0,0.1055,0.1062,0.1061,0.1077,0.1083,0.1089,0.1096,0.1094,0.1101,0.11,0.11,0.1101,0.1114,0.1116,0.1109,0.1131,0.1124,0.1126,0.1129,0.1131,0.1133,0.1132,0.1102,0,0,0,0,0,0.1058,0.1068,0.1073,0.1087,0.109,0.1093,0.1098,0.1097,0.1103,0.1106,0.1109,0.1114,0.1122,0.1127,0.1134,0.1149,0.115,0.1155,0.1157,0.1159,0.116,0.1167,0.117,0.1144,0.1144,0.1144,0,0,0.1065,0.107,0.1076,0.1088,0.1093,0.1102,0.1095,0.1105,0.1111,0.1107,0.1119,0.1121,0.1127,0.1141,0.1147,0.1143,0.1167,0.116,0.1161,0.1162,0.1169,0.1171,0.1173,0.1145,0.1145,0.1145,0,0,0.1081,0.1087,0.1098,0.1103,0.111,0.1112,0.1115,0.1121,0.1123,0.1135,0.1132,0.114,0.1153,0.1157,0.1161,0.118,0.1176,0.1182,0.1191,0.1198,0.12,0.1202,0.1208,0.121,0.1183,0.1183,0.1183,0,0.1088,0.1103,0.1104,0.1114,0.1119,0.1117,0.1128,0.1132,0.1141,0.1144,0.1141,0.1157,0.1161,0.1175,0.118,0.1183,0.1186,0.1181,0.12,0.1202,0.1204,0.1209,0.1211,0.1184,0.1184,0.1184,0.1184,0,0.1111,0.1121,0.1129,0.1138,0.1144,0.1155,0.1157,0.1163,0.1162,0.1164,0.1176,0.1181,0.1189,0.1193,0.1192,0.1207,0.1204,0.12,0.1193,0.1207,0.1212,0.1214,0.1185,0.1185,0.1184,0.1184,0,0,0.1131,0.1142,0.1145,0.1149,0.1157,0.1164,0.1174,0.1183,0.1187,0.1194,0.1202,0.1213,0.121,0.1214,0.1214,0.122,0.1234,0.1216,0.1216,0.1218,0.125,0.1252,0.1255,0.1232,0.1233,0.1233,0.1249,0,0.1148,0.1167,0.1168,0.1185,0.1193,0.1191,0.12,0.1205,0.1208,0.1215,0.1217,0.1225,0.122,0.1223,0.1229,0.1231,0.124,0.123,0.1239,0.1239,0.1237,0.1258,0.126,0.1275,0.1251,0.1252,0.1252,0,0.117,0.1178,0.1195,0.1202,0.1206,0.1214,0.1221,0.1229,0.1234,0.1236,0.1241,0.1239,0.1249,0.1242,0.1255,0.1248,0.1252,0.1253,0.1254,0.1254,0.1246,0.1258,0.128,0.1282,0.1255,0.1255,0.1255,0,0.1182,0.1197,0.1209,0.1213,0.1221,0.1227,0.123,0.1236,0.1241,0.1248,0.1251,0.1258,0.1262,0.1268,0.1268,0.1263,0.1281,0.1274,0.1281,0.1281,0.1285,0.1284,0.1307,0.1288,0.1288,0.1288,0.1288,0,0.12,0.1211,0.1215,0.1222,0.1234,0.1235,0.1247,0.125,0.1255,0.1262,0.1261,0.1268,0.1269,0.1275,0.1276,0.1286,0.1288,0.1289,0.1289,0.1289,0.1288,0.1291,0.1289,0.1289,0.1289,0.1289,0.1289,0,0.1215,0.1219,0.1232,0.1239,0.1241,0.1249,0.1255,0.1262,0.1264,0.1273,0.1276,0.1279,0.1287,0.1288,0.1298,0.1298,0.131,0.1309,0.1308,0.1308,0.1315,0.1314,0.134,0.1343,0.1323,0.1323,0.1323,0,0.1226,0.1235,0.1243,0.1248,0.1252,0.1261,0.1266,0.1268,0.1273,0.128,0.1286,0.1294,0.1301,0.1314,0.1317,0.1324,0.1322,0.1331,0.1323,0.1323,0.1322,0.1321,0.1322,0.1332,0.1332,0.1332,0.1333,0,0.1245,0.1247,0.1255,0.1263,0.127,0.1277,0.1283,0.1287,0.1289,0.1296,0.1304,0.1309,0.1319,0.1327,0.1334,0.1337,0.1335,0.1335,0.1337,0.1337,0.1336,0.1336,0.1312,0.1334,0.1334,0.1334,0.1334,0.1334,0.1258,0.1265,0.1272,0.1281,0.1286,0.1292,0.1299,0.1303,0.131,0.1319,0.1319,0.1328,0.1334,0.1343,0.1347,0.1354,0.1351,0.1354,0.1354,0.1355,0.1355,0.1335,0.1355,0.1355,0.1355,0.1355,0.1355,0,0.1277,0.1281,0.1289,0.1299,0.1305,0.1304,0.1311,0.1317,0.1325,0.1331,0.1337,0.1347,0.1355,0.1358,0.1366,0.137,0.137,0.1372,0.1372,0.1372,0.1358,0.1355,0.1373,0.1373,0.1373,0.1373,0.1373,0.1373,0.1287,0.1299,0.1301,0.1315,0.1319,0.1329,0.1333,0.1338,0.1343,0.1354,0.1361,0.1363,0.1368,0.1376,0.1382,0.1383,0.1386,0.1388,0.1389,0.1375,0.1373,0.1371,0.1369,0.1389,0.1389,0.1402,0.1403,0.1403]},{"header":{"parameterUnit":"m.s-1","parameterCategory":1,"la1":30.2991,"la2":30.254,"lo1":-89.0895,"lo2":-89.0444,"dy":0.0017,"dx":0.0017,"nx":28,"ny":28,"refTime":"2024-03-25T21:00:00:Z","depth":0,"parameterNumber":3,"parameterNumberName":"V-component_of_WINDS"},"data":[0,0,0,0,0,0,0,0,0,0,0,0,0,0,0,0,0,0,0,0,0,0,0,0,0,0,0,0,0,0,0,0,0,0,0,0,0,0,0,0,0,0,0,0,0,0,0,0,0,0,0,0,0,0,0,0,0,0,-1.4172,-1.4174,0,-1.4308,-1.4309,-1.4311,-1.4366,-1.4366,-1.4365,-1.4365,-1.4504,-1.4508,-1.4511,0,0,0,0,0,0,0,0,0,0,0,0,0,-1.3961,-1.3964,-1.4172,-1.4174,-1.4175,-1.4307,-1.4309,-1.4311,-1.4366,-1.4366,-1.4365,-1.4365,-1.4502,-1.4507,-1.4512,0,0,0,0,0,0,0,0,0,0,0,0,0,-1.407,-1.3965,-1.4172,-1.4219,-1.4224,-1.4307,-1.4309,-1.4312,-1.4366,-1.4366,-1.4365,-1.4365,-1.4501,-1.4507,-1.4512,-1.4558,0,0,-1.4531,-1.4533,0,0,0,0,0,0,0,0,-1.4064,-1.4078,-1.421,-1.4216,-1.4222,-1.432,-1.4286,-1.4394,-1.4366,-1.4312,-1.4365,-1.4365,-1.4443,-1.4453,-1.448,-1.4565,-1.4571,-1.4531,-1.4535,-1.4537,-1.4539,0,0,0,0,0,0,0,-1.4056,-1.4072,-1.4226,-1.4212,-1.4219,-1.4233,-1.4248,-1.4307,-1.4378,-1.4317,-1.4321,-1.4337,-1.4446,-1.4474,-1.4484,-1.4573,-1.4531,-1.4536,-1.454,-1.4542,-1.4704,-1.4704,0,0,0,0,0,0,-1.4041,-1.4065,-1.4221,-1.423,-1.414,-1.4237,-1.4254,-1.4289,-1.4378,-1.4391,-1.4337,-1.4339,-1.4464,-1.4477,-1.4489,-1.4549,-1.4537,-1.4543,-1.4546,-1.4703,-1.4704,-1.4705,0,0,0,0,0,0,-1.4036,-1.4054,-1.4216,-1.4149,-1.4171,-1.4241,-1.428,-1.4292,-1.432,-1.4393,-1.4406,-1.4352,-1.4464,-1.448,-1.4541,-1.4555,-1.4546,-1.4551,-1.4702,-1.4703,-1.4704,-1.467,0,0,0,0,0,0,-1.403,-1.4052,-1.407,-1.4149,-1.4174,-1.4266,-1.4281,-1.4295,-1.433,-1.4334,-1.4411,-1.4423,-1.4465,-1.4532,-1.4547,-1.4563,-1.4556,-1.4701,-1.4703,-1.4704,-1.4671,-1.467,-1.467,0,0,0,0,0,-1.4022,-1.4055,-1.4071,-1.4089,-1.4198,-1.4267,-1.4281,-1.4328,-1.4331,-1.435,-1.4397,-1.4421,-1.4551,-1.4538,-1.4555,-1.4573,-1.4701,-1.4702,-1.4704,-1.4671,-1.467,-1.467,0,0,0,0,0,0,-1.3976,-1.4066,-1.4085,-1.4144,-1.4197,-1.4276,-1.4301,-1.4326,-1.4379,-1.4381,-1.4437,-1.4454,-1.451,-1.4548,-1.4531,-1.4623,-1.4628,-1.4633,-1.4596,-1.4597,-1.4596,-1.4586,-1.4561,0,0,0,0,0,-1.3973,-1.4021,-1.4097,-1.4142,-1.4168,-1.423,-1.4261,-1.4293,-1.4351,-1.4373,-1.4425,-1.4479,-1.4533,-1.4566,-1.4619,-1.4676,-1.4694,-1.4697,-1.4697,-1.4696,-1.47,-1.4734,-1.4736,-1.471,-1.471,-1.471,0,0,-1.3967,-1.4022,-1.4049,-1.4134,-1.4179,-1.4228,-1.4248,-1.4299,-1.4336,-1.4381,-1.4442,-1.4481,-1.4546,-1.4605,-1.4634,-1.4638,-1.4711,-1.4698,-1.4697,-1.4702,-1.4735,-1.4738,-1.474,-1.4711,-1.4711,-1.4711,0,0,-1.3981,-1.4027,-1.407,-1.4115,-1.4183,-1.4224,-1.4234,-1.4309,-1.4337,-1.4399,-1.4434,-1.4479,-1.4569,-1.4614,-1.4648,-1.468,-1.4704,-1.4695,-1.4693,-1.4726,-1.4728,-1.473,-1.4742,-1.4745,-1.4699,-1.4699,-1.4699,0,-1.3965,-1.404,-1.4089,-1.4138,-1.4175,-1.4218,-1.4263,-1.4304,-1.4385,-1.441,-1.4413,-1.4528,-1.4574,-1.4645,-1.4653,-1.4679,-1.4693,-1.4687,-1.4723,-1.4726,-1.4729,-1.4741,-1.4745,-1.4697,-1.4697,-1.4698,-1.4698,0,-1.4017,-1.4068,-1.4095,-1.4173,-1.4213,-1.4259,-1.4316,-1.435,-1.4379,-1.4419,-1.4482,-1.4539,-1.4605,-1.4624,-1.4652,-1.4699,-1.47,-1.4712,-1.4719,-1.4729,-1.4741,-1.4746,-1.4695,-1.4696,-1.4696,-1.4697,0,0,-1.4007,-1.4112,-1.4121,-1.4157,-1.4235,-1.4276,-1.4324,-1.4389,-1.4417,-1.4472,-1.4514,-1.459,-1.4603,-1.4642,-1.4675,-1.4703,-1.4725,-1.4713,-1.4715,-1.4714,-1.4782,-1.4772,-1.4777,-1.4742,-1.4743,-1.4743,-1.4777,0,-1.4032,-1.4121,-1.4167,-1.4236,-1.4285,-1.4327,-1.4369,-1.4421,-1.446,-1.4507,-1.455,-1.4604,-1.4616,-1.464,-1.4669,-1.4716,-1.474,-1.4714,-1.4782,-1.4784,-1.4766,-1.4783,-1.4773,-1.4802,-1.4782,-1.4783,-1.4783,0,-1.4074,-1.4128,-1.4202,-1.4276,-1.4298,-1.4335,-1.4398,-1.4442,-1.4503,-1.4529,-1.4573,-1.4606,-1.4659,-1.466,-1.4734,-1.4716,-1.4746,-1.4773,-1.4776,-1.4785,-1.4785,-1.4794,-1.4812,-1.4817,-1.4791,-1.479,-1.479,0,-1.406,-1.4152,-1.4209,-1.4238,-1.4324,-1.435,-1.4387,-1.4447,-1.4483,-1.4538,-1.4562,-1.4622,-1.4655,-1.4701,-1.4749,-1.4746,-1.4819,-1.4824,-1.4843,-1.4842,-1.4858,-1.4856,-1.4882,-1.4875,-1.4875,-1.4875,-1.4875,0,-1.4084,-1.4128,-1.4204,-1.4238,-1.4289,-1.4341,-1.439,-1.443,-1.4484,-1.4527,-1.4566,-1.4606,-1.4667,-1.4715,-1.4753,-1.4809,-1.4823,-1.4847,-1.4856,-1.4844,-1.4841,-1.4865,-1.4865,-1.4876,-1.4876,-1.4875,-1.4875,0,-1.4078,-1.413,-1.4195,-1.4271,-1.4291,-1.4325,-1.4391,-1.4427,-1.4467,-1.4522,-1.4538,-1.4602,-1.4661,-1.4713,-1.479,-1.4816,-1.4873,-1.4885,-1.4853,-1.4859,-1.4875,-1.4873,-1.4918,-1.4927,-1.4913,-1.4913,-1.4913,0,-1.409,-1.4125,-1.4206,-1.4238,-1.4274,-1.4325,-1.4363,-1.4415,-1.4452,-1.4524,-1.4551,-1.4612,-1.4664,-1.4755,-1.4809,-1.4868,-1.4882,-1.4894,-1.4892,-1.4878,-1.4884,-1.4882,-1.4886,-1.4894,-1.4894,-1.4894,-1.4894,0,-1.4107,-1.4132,-1.4184,-1.4245,-1.4288,-1.4339,-1.4391,-1.4415,-1.4477,-1.4517,-1.4577,-1.4617,-1.4696,-1.4757,-1.4822,-1.4861,-1.4888,-1.4894,-1.4902,-1.489,-1.487,-1.4882,-1.4853,-1.4893,-1.4893,-1.4893,-1.4893,-1.4893,-1.4112,-1.4145,-1.4207,-1.4264,-1.4309,-1.4356,-1.4394,-1.444,-1.4491,-1.4559,-1.4587,-1.4649,-1.4709,-1.4799,-1.4838,-1.4887,-1.4892,-1.4903,-1.4906,-1.4908,-1.4906,-1.4861,-1.4898,-1.4899,-1.4899,-1.4899,-1.4899,0,-1.4132,-1.4174,-1.4226,-1.4297,-1.4342,-1.4364,-1.4422,-1.4458,-1.4512,-1.4565,-1.4616,-1.4685,-1.4744,-1.4802,-1.4864,-1.4892,-1.4907,-1.4907,-1.4906,-1.4915,-1.4897,-1.4885,-1.4895,-1.4895,-1.4895,-1.4895,-1.4895,-1.4895,-1.4148,-1.4206,-1.4237,-1.4318,-1.436,-1.442,-1.4452,-1.4496,-1.454,-1.4615,-1.4665,-1.4702,-1.4758,-1.4825,-1.488,-1.4895,-1.4917,-1.4914,-1.4933,-1.4916,-1.4916,-1.4916,-1.4904,-1.4918,-1.4918,-1.4947,-1.4947,-1.4947]}]]